Regional Weather Roundup
Issued by NWS Raleigh/Durham, NC

Home | Current Version | Previous Version | Text Only | Print | Product List | Glossary On
Versions: 1 2 3 4 5 6 7 8 9 10 11 12 13 14 15 16 17 18 19 20 21 22 23 24 25 26 27 28
000
ASUS42 KRAH 010410
RWRRAH
NORTH CAROLINA WEATHER ROUNDUP
NATIONAL WEATHER SERVICE RALEIGH NC
1200 AM EDT THU SEP 01 2016

NOTE: "FAIR" INDICATES FEW OR NO CLOUDS BELOW 12,000 FEET WITH NO
SIGNIFICANT WEATHER AND/OR OBSTRUCTIONS TO VISIBILITY.

NCZ001-053-055-056-065-067-010500-
WESTERN NORTH CAROLINA

CITY           SKY/WX    TMP DP  RH WIND       PRES   REMARKS
ASHEVILLE      PTCLDY    72  67  84 CALM      30.03S
JEFFERSON      CLOUDY    65  63  92 N3        30.08S
MORGANTON      CLEAR     71  70  98 CALM      30.02S
HICKORY        CLEAR     75  70  84 SW3       29.97R
RUTHERFORDTON    N/A     74  72  93 CALM      29.98S
MOUNT AIRY     LGT RAIN  74  70  86 NW7G16    30.01R
BOONE          PTCLDY    66  66 100 CALM      30.09S
$$

NCZ021-022-025-041-071-084-088-010500-
CENTRAL NORTH CAROLINA

CITY           SKY/WX    TMP DP  RH WIND       PRES   REMARKS
CHARLOTTE      PTCLDY    73  68  84 CALM      29.96S
GREENSBORO     PTCLDY    76  70  82 SW7       29.95R
WINSTON-SALEM  CLEAR     78  68  71 SW5       29.97R
RALEIGH-DURHAM PTCLDY    77  71  82 S5        29.94S
FORT BRAGG     PTCLDY    78  71  81 S3        29.92S
FAYETTEVILLE   PTCLDY    77  71  82 SW3       29.93S
BURLINGTON     CLEAR     75  71  87 S3        29.94S
LAURINBURG     PTCLDY    74  71  91 CALM      29.94F
$$

NCZ011-015-027-028-043-044-047-080-103-010500-
NORTHEASTERN NORTH CAROLINA

CITY           SKY/WX    TMP DP  RH WIND       PRES   REMARKS
ROCKY MT-WILSO PTCLDY    73  73 100 CALM      29.93S
GREENVILLE     PTCLDY    73  73 100 S5        29.95S
WASHINGTON     CLOUDY    75  73  93 W3        29.94R
ELIZABETH CITY CLOUDY    75  73  93 CALM      29.93S
MANTEO         CLOUDY    80  75  85 SW7       29.92F
CAPE HATTERAS  CLOUDY    81  74  79 S6        29.92F
$$

NCZ078-087-090-091-093-098-101-010500-
SOUTHEASTERN NORTH CAROLINA

CITY           SKY/WX    TMP DP  RH WIND       PRES   REMARKS
LUMBERTON      CLEAR     73  72  96 CALM      29.91F
GOLDSBORO      MOCLDY    74  74 100 CALM      29.92S
KINSTON        PTCLDY    73  71  95 CALM      29.94S
KENANSVILLE    CLOUDY    72  70  94 CALM      29.93S
NEW BERN       CLOUDY    75  73  93 CALM      29.94S
CHERRY POINT   CLOUDY    75  71  87 NW3       29.93S
BEAUFORT       CLOUDY    79  76  90 S8        29.92F
JACKSONVILLE   CLOUDY    74  72  93 W3        29.92S
WILMINGTON     CLOUDY    74  72  93 CALM      29.92F
$$





USA.gov is the U.S. government's official web portal to all federal, state and local government web resources and services.